TimePST,TemperatureF,Dew PointF,Humidity,Sea Level PressureIn,VisibilityMPH,Wind Direction,Wind SpeedMPH,Gust SpeedMPH,PrecipitationIn,Events,Conditions,WindDirDegrees,DateUTC
12:55 AM,-9999,-9999,N/A,30.02,-9999.0,North,-9999.0,-,N/A,,Unknown,0,2011-11-30 08:55:00
1:55 AM,-9999,-9999,N/A,30.02,-9999.0,North,-9999.0,-,N/A,,Unknown,0,2011-11-30 09:55:00
2:55 AM,-9999,-9999,N/A,30.00,-9999.0,North,-9999.0,-,N/A,,Unknown,0,2011-11-30 10:55:00
3:55 AM,-9999,-9999,N/A,29.99,-9999.0,North,-9999.0,-,N/A,,Unknown,0,2011-11-30 11:55:00
4:55 AM,-9999,-9999,N/A,29.99,-9999.0,North,-9999.0,-,N/A,,Unknown,0,2011-11-30 12:55:00
5:55 AM,-9999,-9999,N/A,29.99,-9999.0,North,-9999.0,-,N/A,,Unknown,0,2011-11-30 13:55:00
6:55 AM,-9999,-9999,N/A,29.99,-9999.0,North,-9999.0,-,N/A,,Unknown,0,2011-11-30 14:55:00
7:55 AM,-9999,-9999,N/A,29.99,-9999.0,North,-9999.0,-,N/A,,Unknown,0,2011-11-30 15:55:00
8:55 AM,-9999,-9999,N/A,29.98,-9999.0,North,-9999.0,-,N/A,,Unknown,0,2011-11-30 16:55:00
9:55 AM,-9999,-9999,N/A,29.97,-9999.0,North,-9999.0,-,N/A,,Unknown,0,2011-11-30 17:55:00
10:55 AM,62.1,51.1,67,29.92,10.0,SW,3.5,-,N/A,,Unknown,220,2011-11-30 18:55:00
11:55 AM,63.0,55.0,75,29.90,7.0,SSW,8.1,-,N/A,,Unknown,200,2011-11-30 19:55:00
12:55 PM,62.1,54.0,75,29.85,7.0,SSW,8.1,-,N/A,,Clear,210,2011-11-30 20:55:00
1:55 PM,62.1,54.0,75,29.84,7.0,SW,9.2,-,N/A,,Unknown,220,2011-11-30 21:55:00
2:55 PM,61.0,53.1,75,29.82,6.0,South,6.9,-,N/A,,Haze,190,2011-11-30 22:55:00
3:55 PM,60.1,53.1,78,29.80,-9999.0,SW,4.6,-,N/A,,Partly Cloudy,230,2011-11-30 23:55:00
4:55 PM,57.9,53.1,84,29.81,6.0,East,10.4,-,N/A,,Haze,80,2011-12-01 00:55:00
6:55 PM,59.0,46.0,62,29.82,10.0,North,9.2,20.7,N/A,,Clear,350,2011-12-01 02:55:00
7:55 PM,59.0,32.0,36,29.82,10.0,NW,12.7,-,N/A,,Clear,310,2011-12-01 03:55:00
8:55 PM,55.0,36.0,49,29.84,10.0,NE,12.7,16.1,N/A,,Clear,40,2011-12-01 04:55:00
9:55 PM,54.0,35.1,49,29.84,10.0,Calm,Calm,-,N/A,,Clear,0,2011-12-01 05:55:00